Location: Veytaux
(46.4185°N, 6.9320°E)
Time: 08:45:55
(UTC+00:00)

NOSS 0 Rocket - Pass Details

Date: 27 May 2022
Orbit: 936 x 954 km, 70.0° (Epoch: 01 July)

Event Time Altitude Azimuth Distance (km) Brightness Sun altitude
Exits shadow 00:45:03 28° 236° (SW) 1,692 4.8 -20.2°
Maximum altitude 00:48:15 58° 303° (WNW) 1,110 4.3 -20.0°
Drops below altitude 10° 00:54:24 10° 22° (NNE) 2,689 7.6 -19.6°
Sets 00:57:00 0° 27° (NNE) 3,637 8.6 -19.5°
